Location: Newark
(44.3681°N, 100.3364°W)
Time: 23:29:19
(UTC+00:00)

S-56A Canister/Altair - Visible Passes

Search period start: 23 February 2020 00:00
Search period end: 04 March 2020 00:00
Orbit: 633 x 2499 km, 38.9° (Epoch: 23 February)

Date Brightness Start Highest point End Pass type
(mag) Time Alt. Az. Time Alt. Az. Time Alt. Az.
23 Feb 11.5 01:43:11 10° WSW 01:43:35 10° WSW 01:43:59 10° SW visible
24 Feb 11.5 01:05:46 10° W 01:10:54 14° SW 01:15:25 10° SSW visible
02 Mar 11.4 12:20:48 10° SSE 12:25:58 15° SE 12:31:56 10° E visible
03 Mar 11.4 11:50:32 10° SE 11:53:15 11° ESE 11:56:12 10° ESE visible
